Regional Weather Roundup
Issued by NWS Little Rock, AR

Home | Current Version | Previous Version | Graphics & Text | Print | Product List | Glossary On
Versions: 1 2 3 4 5 6 7 8 9 10 11 12 13 14 15 16 17 18 19 20 21 22 23 24 25 26 27 28 29 30 31 32 33 34 35 36 37 38 39 40 41 42 43 44 45 46 47 48 49 50
000
ASUS44 KLZK 260705
RWRLZK

WEATHER ROUNDUP FOR ARKANSAS
NATIONAL WEATHER SERVICE LITTLE ROCK AR
200 AM CDT SUN APR 26 2015

NOTE: "FAIR" INDICATES FEW OR NO CLOUDS BELOW 12,000 FEET WITH NO
SIGNIFICANT WEATHER AND/OR OBSTRUCTIONS TO VISIBILITY.

ARZ001-003-010-029-260800-
NORTHWEST ARKANSAS

CITY           SKY/WX    TMP DP  RH WIND       PRES   REMARKS
FAYETTEVILLE   CLEAR     56  54  93 CALM      29.74S
FORT SMITH     CLEAR     61  55  81 CALM      29.69S
HARRISON       CLOUDY    57  53  86 N9        29.75S
BENTONVILLE    CLOUDY   N/A N/A N/A E6        29.75S
ROGERS         CLOUDY    57  53  86 NE6       29.76S
SILOAM SPGS    CLOUDY    57  48  72 NE6       29.75F
HIGHFILL       CLOUDY    58  53  84 NE6       29.74S
$$

ARZ004-005-016-260800-
NORTH CENTRAL ARKANSAS

CITY           SKY/WX    TMP DP  RH WIND       PRES   REMARKS
BATESVILLE     CLEAR     63  54  72 NW5       29.69R
FLIPPIN        CLOUDY    61  54  77 N6        29.72R
MTN HOME       CLOUDY    58  53  84 VRB5      29.73R
$$

ARZ040-041-260800-
WEST CENTRAL ARKANSAS

CITY           SKY/WX    TMP DP  RH WIND       PRES   REMARKS
MENA           CLEAR     57  52  82 CALM      29.70S
MOUNT IDA      CLEAR     58  53  84 VRB5      29.67R
$$

ARZ009-017-025-026-028-260800-
NORTHEAST ARKANSAS

CITY           SKY/WX    TMP DP  RH WIND       PRES   REMARKS
CORNING          N/A     64  57  77 N8        29.68R
JONESBORO      CLEAR     61  55  81 CALM      29.67R
NEWPORT        PTCLDY    62  56  81 CALM      29.68R
WALNUT RIDGE   CLEAR     61  52  72 N6        29.67S
BLYTHEVILLE    MOCLDY    59  58  96 N5        29.66R
$$

ARZ022-023-033-042-044-260800-
CENTRAL ARKANSAS

CITY           SKY/WX    TMP DP  RH WIND       PRES   REMARKS
LITTLE ROCK    CLEAR     65  52  62 N6        29.67R
N LITTLE ROCK    N/A     66  56  70 N8        29.67R
JACKSONVILLE   CLEAR     58  55  91 CALM      29.67S
SEARCY         CLEAR     64  55  72 N5        29.68S
HOT SPRINGS    CLEAR     57  54  89 CALM      29.68R
RUSSELLVILLE   CLEAR     57  55  93 CALM      29.68S
CLINTON        FAIR      63  55  77 CALM      29.70S
$$

ARZ036-260800-
EAST ARKANSAS

CITY           SKY/WX    TMP DP  RH WIND       PRES   REMARKS
WEST MEMPHIS   CLEAR     65  59  81 N7        29.64R
$$

ARZ050-053-066-070-073-260800-
SOUTHWEST ARKANSAS

CITY           SKY/WX    TMP DP  RH WIND       PRES   REMARKS
ARKADELPHIA    FAIR      60  60 100 CALM      29.68S
CAMDEN         CLEAR     55  54  94 CALM      29.68S
TEXARKANA      CLEAR     61  57  87 SW5       29.68S
EL DORADO      CLEAR     58  55  90 CALM      29.68F
DE QUEEN       CLEAR     54  53  97 CALM      29.67S FOG
$$

ARZ056-057-069-260800-
SOUTHEAST ARKANSAS

CITY           SKY/WX    TMP DP  RH WIND       PRES   REMARKS
PINE BLUFF     CLEAR     64  54  69 W3        29.66S
STUTTGART      CLEAR     63  54  72 NW9       29.67R
MONTICELLO     CLEAR     68  56  65 W7        29.67S

$$




USA.gov is the U.S. government's official web portal to all federal, state and local government web resources and services.